Location: Nairn
(57.5833°N, 3.8667°W)
Time: 22:07:36
(UTC+00:00)

Tiros 1 - Pass Details

Date: 03 December 2020
Orbit: 630 x 663 km, 48.4° (Epoch: 22 January)

Event Time Altitude Azimuth Distance (km) Brightness Sun altitude
Rises 15:11:07 0° 228° (SW) 2,991 13.5 1.3°
Reaches altitude 10° 15:13:52 10° 214° (SSW) 2,080 11.9 1.1°
Maximum altitude 15:17:34 23° 163° (SSE) 1,419 9.4 0.7°
Drops below altitude 10° 15:21:17 10° 112° (ESE) 2,077 9.6 0.4°
Sets 15:24:01 0° 98° (E) 2,986 10.2 0.1°
